Weather in Tasmachi

Uzbekistan     40°03′13″N   66°05′09″E
temp.,
°C
wind,
m/s
gust,
m/s
humid.,
%
clouds,
%
prec.,
mm/h
press.,
hPa
HPBL,
m
11 may, tue
tue1123:00+18ne366982 1.8 1012147
02:00+17ese347241 0.0 101397
05:00+16ese34600 0.0 101453
08:00+20ne23330 0.0 1015292
11:00+26ne45180 0.0 10151360
14:00+29nne66140 0.0 10142043
17:00+28ne65150 0.0 10142371
20:00+23ne46260 0.0 101485
12 may, wed
wed1223:00+20nne35270 0.0 101474
02:00+18ne35340 0.0 101377
05:00+17ne33400 0.0 101329
08:00+22ene34340 0.0 1014334
11:00+26ne23253 0.0 10131633
14:00+29nne76215 0.0 10122144
17:00+28nne76210 0.0 10112188
20:00+23ne48310 0.0 1012146
13 may, thu
thu1323:00+21ne37360 0.0 1012108
02:00+19nne47450 0.0 1011148
05:00+17ne46440 0.0 1011122
08:00+19ene34350 0.0 1012624
11:00+24ne34250 0.0 1011987
14:00+28nne98180 0.0 10101536
17:00+29nne98180 0.0 10091825
20:00+23ne610270 0.0 1011241
14 may, fri
fri1423:00+20ene46270 0.0 1012115
02:00+17e35330 0.0 101177
05:00+15ne34350 0.0 101252
08:00+19ene45280 0.0 1012484
11:00+25ne44200 0.0 1011942
14:00+29nne65180 0.0 10091644
17:00+30ne44160 0.0 10082143
20:00+24ene510260 0.0 1009207
15 may, sat
sat1523:00+21ne35320 0.0 100988
02:00+18ne37420 0.0 1008128
05:00+17ese22460 0.0 100920
08:00+21ese333710 0.0 1009309
11:00+27ese22250 0.0 1008940
14:00+32nw12140 0.0 10062724
17:00+31nne53130 0.0 10052333
20:00